| time (UTC) | temp C | wind direction | speed KPH | gust KPH | rain 1hr cm | rain 24hr cm | rain mn cm | humidity % | barometer mb |
| 20260507031534 | 13 | 158 | 0.0 | 0.0 | 0.00 | 0.00 | 0.00 | 79 | 1019.9 |
| 20260507030035 | 13 | 159 | 0.0 | 0.0 | 0.00 | 0.00 | 0.00 | 78 | 1019.8 |
| 20260507024534 | 13 | 158 | 1.6 | 0.0 | 0.00 | 0.00 | 0.00 | 78 | 1019.8 |
| 20260507023034 | 14 | 207 | 1.6 | 0.0 | 0.00 | 0.00 | 0.00 | 78 | 1019.7 |
| 20260507021537 | 14 | 184 | 1.6 | 0.0 | 0.00 | 0.00 | 0.00 | 77 | 1019.7 |
| 20260507020046 | 14 | 186 | 4.8 | 0.0 | 0.00 | 0.00 | 0.00 | 77 | 1019.6 |
| 20260507014535 | 14 | 202 | 1.6 | 0.0 | 0.00 | 0.00 | 0.00 | 78 | 1019.7 |
| 20260507013032 | 14 | 163 | 3.2 | 0.0 | 0.00 | 0.00 | 0.00 | 78 | 1019.7 |
| 20260507011542 | 14 | 197 | 4.8 | 0.0 | 0.00 | 0.00 | 0.00 | 78 | 1019.8 |
| 20260507010035 | 14 | 201 | 3.2 | 0.0 | 0.00 | 0.00 | 0.00 | 78 | 1019.8 |
| 20260507004532 | 14 | 193 | 4.8 | 0.0 | 0.00 | 0.00 | 0.00 | 76 | 1019.8 |
| 20260507003030 | 14 | 126 | 4.8 | 0.0 | 0.00 | 0.00 | 0.00 | 76 | 1019.9 |
| 20260507001601 | 14 | 202 | 4.8 | 0.0 | 0.00 | 0.00 | 0.00 | 75 | 1019.8 |
| 20260507000035 | 14 | 144 | 4.8 | 0.0 | 0.00 | 0.00 | 0.00 | 75 | 1019.8 |
| 20260506234528 | 14 | 169 | 3.2 | 0.0 | 0.00 | 0.00 | 0.00 | 75 | 1019.8 |
| 20260506233027 | 14 | 153 | 4.8 | 0.0 | 0.00 | 0.00 | 0.00 | 75 | 1019.8 |
| 20260506231527 | 15 | 174 | 6.4 | 0.0 | 0.00 | 0.00 | 0.00 | 73 | 1019.7 |
| 20260506230040 | 15 | 196 | 6.4 | 0.0 | 0.00 | 0.00 | 0.00 | 73 | 1019.8 |
| 20260506224526 | 15 | 158 | 6.4 | 0.0 | 0.00 | 0.00 | 0.00 | 73 | 1019.9 |
| 20260506223029 | 14 | 195 | 4.8 | 0.0 | 0.00 | 0.00 | 0.00 | 75 | 1019.9 |
| 20260506221521 | 13 | 176 | 4.8 | 0.0 | 0.00 | 0.00 | 0.00 | 75 | 1020.0 |
| 20260506220021 | 13 | 171 | 4.8 | 0.0 | 0.00 | 0.00 | 0.00 | 77 | 1020.1 |
| 20260506214521 | 13 | 173 | 4.8 | 0.0 | 0.00 | 0.00 | 0.00 | 76 | 1020.2 |
| 20260506213019 | 14 | 153 | 4.8 | 0.0 | 0.00 | 0.00 | 0.00 | 77 | 1020.2 |
| 20260506211522 | 14 | 183 | 3.2 | 0.0 | 0.00 | 0.00 | 0.00 | 77 | 1020.1 |
| 20260506210036 | 13 | 167 | 3.2 | 0.0 | 0.00 | 0.00 | 0.00 | 79 | 1020.1 |
| 20260506204514 | 13 | 162 | 3.2 | 0.0 | 0.00 | 0.00 | 0.00 | 80 | 1020.0 |
| 20260506203012 | 13 | 138 | 3.2 | 0.0 | 0.00 | 0.00 | 0.00 | 82 | 1020.0 |
| 20260506201519 | 13 | 141 | 3.2 | 0.0 | 0.00 | 0.00 | 0.00 | 82 | 1020.0 |
| 20260506200011 | 13 | 194 | 3.2 | 0.0 | 0.00 | 0.00 | 0.00 | 84 | 1020.0 |
| 20260506194511 | 13 | 229 | 3.2 | 0.0 | 0.00 | 0.00 | 0.00 | 84 | 1019.9 |
| 20260506193018 | 13 | 184 | 3.2 | 0.0 | 0.00 | 0.00 | 0.00 | 87 | 1020.0 |
| 20260506191511 | 12 | 165 | 3.2 | 0.0 | 0.00 | 0.00 | 0.00 | 88 | 1019.8 |
| 20260506190012 | 12 | 152 | 3.2 | 0.0 | 0.00 | 0.00 | 0.00 | 88 | 1019.8 |
| 20260506184507 | 12 | 194 | 3.2 | 0.0 | 0.00 | 0.00 | 0.00 | 90 | 1019.8 |
| 20260506183006 | 12 | 216 | 3.2 | 0.0 | 0.00 | 0.00 | 0.00 | 90 | 1019.8 |
| 20260506181505 | 12 | 174 | 1.6 | 0.0 | 0.00 | 0.00 | 0.00 | 90 | 1019.9 |
| 20260506180004 | 12 | 184 | 3.2 | 0.0 | 0.00 | 0.00 | 0.00 | 90 | 1019.5 |
| 20260506174503 | 12 | 166 | 3.2 | 0.0 | 0.00 | 0.00 | 0.00 | 90 | 1019.4 |
| 20260506173002 | 12 | 184 | 3.2 | 0.0 | 0.00 | 0.00 | 0.00 | 89 | 1019.5 |
| 20260506171600 | 12 | 200 | 1.6 | 0.0 | 0.00 | 0.00 | 0.00 | 89 | 1019.5 |
| 20260506170109 | 12 | 148 | 3.2 | 0.0 | 0.00 | 0.00 | 0.00 | 88 | 1019.6 |
| 20260506164625 | 12 | 177 | 3.2 | 0.0 | 0.00 | 0.00 | 0.00 | 89 | 1019.3 |
| 20260506163104 | 12 | 191 | 4.8 | 0.0 | 0.00 | 0.00 | 0.00 | 89 | 1019.3 |
| 20260506161555 | 12 | 120 | 6.4 | 0.0 | 0.00 | 0.00 | 0.00 | 89 | 1019.1 |
| 20260506160059 | 12 | 186 | 3.2 | 0.0 | 0.00 | 0.00 | 0.00 | 89 | 1018.9 |
| 20260506154554 | 12 | 208 | 4.8 | 0.0 | 0.00 | 0.00 | 0.00 | 89 | 1018.9 |
| 20260506153049 | 12 | 179 | 3.2 | 0.0 | 0.00 | 0.00 | 0.00 | 89 | 1019.1 |
| 20260506151547 | 12 | 159 | 4.8 | 0.0 | 0.00 | 0.00 | 0.00 | 88 | 1019.1 |
| 20260506150054 | 12 | 130 | 4.8 | 0.0 | 0.00 | 0.00 | 0.00 | 88 | 1018.7 |
| 20260506144543 | 12 | 96 | 4.8 | 0.0 | 0.00 | 0.00 | 0.00 | 88 | 1018.7 |
| 20260506143041 | 12 | 181 | 4.8 | 0.0 | 0.00 | 0.00 | 0.00 | 88 | 1018.8 |
| 20260506141543 | 12 | 196 | 4.8 | 0.0 | 0.00 | 0.00 | 0.00 | 88 | 1018.8 |
| 20260506140036 | 12 | 175 | 4.8 | 0.0 | 0.00 | 0.00 | 0.00 | 87 | 1018.5 |
| 20260506134533 | 12 | 128 | 4.8 | 0.0 | 0.00 | 0.00 | 0.00 | 87 | 1018.6 |
| 20260506133034 | 12 | 154 | 3.2 | 0.0 | 0.00 | 0.00 | 0.00 | 87 | 1018.5 |
| 20260506131529 | 12 | 177 | 4.8 | 0.0 | 0.00 | 0.00 | 0.00 | 87 | 1018.4 |
| 20260506130028 | 12 | 177 | 4.8 | 0.0 | 0.00 | 0.00 | 0.00 | 86 | 1017.8 |
| 20260506124526 | 12 | 192 | 3.2 | 0.0 | 0.00 | 0.00 | 0.00 | 86 | 1018.1 |
| 20260506123024 | 12 | 182 | 3.2 | 0.0 | 0.00 | 0.00 | 0.00 | 86 | 1017.9 |
| 20260506121524 | 12 | 182 | 4.8 | 0.0 | 0.00 | 0.00 | 0.00 | 85 | 1017.8 |
| 20260506120046 | 12 | 171 | 3.2 | 0.0 | 0.00 | 0.00 | 0.00 | 85 | 1017.9 |
| 20260506114520 | 12 | 189 | 1.6 | 0.0 | 0.00 | 0.00 | 0.00 | 86 | 1017.7 |
| 20260506113019 | 12 | 183 | 4.8 | 0.0 | 0.00 | 0.00 | 0.00 | 86 | 1017.5 |
| 20260506111517 | 12 | 175 | 3.2 | 0.0 | 0.00 | 0.00 | 0.00 | 86 | 1017.5 |
| 20260506110015 | 12 | 165 | 4.8 | 0.0 | 0.00 | 0.00 | 0.00 | 85 | 1017.3 |
| 20260506104526 | 12 | 180 | 3.2 | 0.0 | 0.00 | 0.00 | 0.00 | 85 | 1017.2 |
| 20260506103033 | 12 | 207 | 3.2 | 0.0 | 0.00 | 0.00 | 0.00 | 86 | 1017.3 |
| 20260506101512 | 12 | 188 | 4.8 | 0.0 | 0.00 | 0.00 | 0.00 | 86 | 1017.2 |
| 20260506100010 | 12 | 167 | 4.8 | 0.0 | 0.00 | 0.00 | 0.00 | 86 | 1017.0 |
| 20260506094511 | 12 | 191 | 4.8 | 0.0 | 0.00 | 0.00 | 0.00 | 86 | 1016.8 |
| 20260506093016 | 12 | 171 | 4.8 | 0.0 | 0.00 | 0.00 | 0.00 | 86 | 1016.8 |
| 20260506091506 | 12 | 150 | 3.2 | 0.0 | 0.00 | 0.00 | 0.00 | 86 | 1016.6 |
| 20260506090005 | 12 | 133 | 3.2 | 0.0 | 0.00 | 0.00 | 0.00 | 86 | 1016.5 |
| 20260506084502 | 12 | 173 | 3.2 | 0.0 | 0.00 | 0.00 | 0.00 | 86 | 1016.5 |
| 20260506083100 | 12 | 175 | 3.2 | 0.0 | 0.00 | 0.00 | 0.00 | 86 | 1016.2 |
| 20260506081601 | 13 | 191 | 1.6 | 0.0 | 0.00 | 0.00 | 0.00 | 85 | 1016.1 |
| 20260506073054 | 13 | 184 | 0.0 | 0.0 | 0.00 | 0.00 | 0.00 | 84 | 1016.0 |
| 20260506071554 | 13 | 184 | 0.0 | 0.0 | 0.00 | 0.00 | 0.00 | 84 | 1016.0 |
| 20260506061552 | 14 | 184 | 0.0 | 0.0 | 0.00 | 0.00 | 0.00 | 81 | 1015.6 |
| 20260506044547 | 15 | 186 | 1.6 | 0.0 | 0.00 | 0.00 | 0.00 | 79 | 1014.7 |
| 20260506043048 | 15 | 184 | 1.6 | 0.0 | 0.00 | 0.00 | 0.00 | 77 | 1014.6 |
| 20260506041558 | 15 | 184 | 0.0 | 0.0 | 0.00 | 0.00 | 0.00 | 77 | 1014.6 |
| 20260506040046 | 16 | 184 | 0.0 | 0.0 | 0.00 | 0.00 | 0.00 | 76 | 1014.5 |
| 20260506034545 | 16 | 184 | 0.0 | 0.0 | 0.00 | 0.00 | 0.00 | 75 | 1014.5 |
| 20260506033044 | 16 | 184 | 0.0 | 0.0 | 0.00 | 0.00 | 0.00 | 75 | 1014.3 |